Flag for India Weather past 2 weeks in Amravati, Maharashtra, India

Now
86 °F

Scattered clouds.


Feels Like: 97 °F
Forecast: 73 / 90 °F
Wind: 7 mph from Northwest

Location: Nagpur Sonegaon

Current Time: Sep 1, 2015 at 11:49:17 AM

Latest Report: Sep 1, 2015 at 11:10 AM


Visibility: 3 mi

Pressure: 29.77 "Hg

Humidity: 75%

Dew point: 77 °F

Location of AmravatiLocation

Historic Weather in Amravati — Graph

°F

Amravati temperature yesterday

Maximum temperature yesterday: 88 °F (at 11:40 AM)
Minimum temperature yesterday: 73 °F (at 4:10 PM)
Average temperature yesterday: 78 °F

Past Weeks' High & Low Weather Summary

 TemperatureHumidityPressure
High99 °F (Aug 23, 1:40 PM)100% (Aug 19, 8:40 PM)29.89 "Hg (Aug 19, 8:40 PM)
Low72 °F (Sep 1, 5:10 AM)49% (Aug 25, 4:40 PM)29.62 "Hg (Aug 26, 3:10 PM)
Average82 °F79%29.75 "Hg
* Reported Aug 17 10:40 AM — Sep 1 10:40 AM, Amravati, Weather by CustomWeather, © 2015

Note: Actual official high and low records may vary slightly from our data, if they occured in-between our weather recording intervals... More about our weather records

Advertising

Amravati weather history for previous 24 hours

 ConditionsComfort  
Time TempWeatherWind HumidityBarometerVisibility
10:40 AM
Tue, Sep 1
84 °FScattered clouds.6 mph79%29.80 "Hg3 mi
10:10 AM82 °FScattered clouds.9 mph74%29.80 "Hg3 mi
8:10 AM75 °FScattered clouds.2 mph94%29.77 "Hg1 mi
7:40 AM73 °FBroken clouds.No wind94%29.77 "Hg1 mi
7:10 AM73 °FBroken clouds.No wind94%29.77 "Hg1 mi
6:40 AM73 °FBroken clouds.No wind94%29.77 "Hg1 mi
6:10 AM72 °FPartly cloudy.No wind100%29.74 "Hg1 mi
5:40 AM72 °FPassing clouds.No wind100%29.74 "Hg1 mi
5:10 AM72 °FPassing clouds.No wind100%29.74 "Hg1 mi
4:40 AM73 °FPassing clouds.No wind94%29.74 "Hg1 mi
4:10 AM73 °FPassing clouds.No wind94%29.74 "Hg1 mi
2:40 AM73 °FPassing clouds.No wind94%29.74 "Hg1 mi
2:10 AM73 °FPartly cloudy.No wind94%29.74 "Hg1 mi
1:40 AM73 °FPartly cloudy.No wind94%29.77 "Hg1 mi
1:10 AM73 °FPartly cloudy.No wind94%29.77 "Hg1 mi
12:40 AM73 °FPartly cloudy.No wind100%29.77 "Hg1 mi
12:10 AM73 °FPartly cloudy.No wind100%29.80 "Hg1 mi
11:40 PM
Mon, Aug 31
75 °FPartly cloudy.No wind94%29.80 "Hg1 mi
11:10 PM75 °FPartly cloudy.No wind94%29.80 "Hg1 mi
10:40 PM75 °FLight rain. Passing clouds.No wind94%29.80 "Hg1 mi
9:40 PM75 °FLight rain. Passing clouds.No wind94%29.80 "Hg1 mi
9:10 PM75 °FLight rain. Passing clouds.No wind94%29.80 "Hg1 mi
8:40 PM75 °FLight rain. Passing clouds.No wind94%29.80 "Hg1 mi
8:10 PM75 °FLight rain. Passing clouds.No wind94%29.77 "Hg1 mi
7:40 PM75 °FLight rain. Passing clouds.No wind94%29.77 "Hg1 mi
6:40 PM75 °FThunderstorms. Broken clouds.5 mph94%29.74 "Hg1 mi
6:10 PM75 °FThunderstorms. Cloudy.5 mph94%29.74 "Hg1 mi
5:10 PM73 °FThunderstorms. Cloudy.6 mph94%29.74 "Hg1 mi
4:40 PM73 °FThunderstorms. Cloudy.5 mph94%29.74 "Hg1 mi
4:10 PM73 °FThunderstorms. More clouds than sun.9 mph94%29.74 "Hg1 mi
3:40 PM75 °FThunderstorms. More clouds than sun.9 mph89%29.74 "Hg1 mi
1:40 PM79 °FThunderstorms. Broken clouds.12 mph89%29.74 "Hg1 mi
1:10 PM88 °FThunderstorms. Scattered clouds.5 mph70%29.74 "Hg2 mi
12:40 PM86 °FScattered clouds.7 mph70%29.77 "Hg3 mi
12:10 PM88 °FScattered clouds.5 mph70%29.77 "Hg3 mi
11:40 AM88 °FScattered clouds.8 mph70%29.80 "Hg3 mi
11:10 AM86 °FScattered clouds.7 mph75%N/A3 mi
Weather by CustomWeather, © 2015

See weather overviewHow to use our weather pages